Погода в Мегрозере

Россия / Республика Карелия     61°01′53″N   33°29′16″E
темп.,
°C
ветер,
м/с
пор.,
м/с
влажн.,
%
обл.,
%
осадки,
мм/ч
давл.,
гПа
погр.,
м
10 августа, ср
ср1000:00+14сз226795 0.0 102644
03:00+12зсз117384 0.0 102627
06:00+12сз127585 0.0 102665
09:00+18з125530 0.0 1026399
12:00+21зюз33405 0.0 10251883
15:00+21з44425 0.0 10251730
18:00+20з364880 0.0 10241061
21:00+14юз227255 0.0 102439
11 августа, чт
чт1100:00+12юз228493 0.0 102444
03:00+12ююз2692100 0.0 1024117
06:00+12ююз31092100 0.0 1024273
09:00+19зюз5959100 0.0 1023915
12:00+21юз61045100 0.0 10221289
15:00+21юз51047100 0.0 10211301
18:00+21зюз5115370 0.0 10201324
21:00+18юз41364100 0.0 1019655
12 августа, пт
пт1200:00+18зюз41371100 0.0 1019654
03:00+17зюз41184100 0.0 1019529
06:00+16зюз38925 0.0 1020325
09:00+20зюз357320 0.0 1020676
12:00+23зюз466030 0.0 10201244
15:00+23з47555 0.0 10201194
18:00+23з36596 0.0 10201022
21:00+18ссз238263 0.1 102181
13 августа, сб
сб1300:00+14ссв248368 0.3 1022102
03:00+14св1183100 0.3 102340
06:00+14св237995 0.0 102394
09:00+16в236999 0.0 1023235
12:00+16вюв1169100 0.0 1023125
15:00+20вюв115337 0.0 1023365
18:00+22в01475 0.0 1022674
21:00+16в22705 0.0 102113
14 августа, вс
вс1400:00+13в22845 0.0 102230
03:00+13в22912 0.0 102124
06:00+15юз118998 0.0 101913
09:00+21юз23649 0.0 1019458
12:00+25зюз33465 0.0 10181261
15:00+25зюз344345 0.0 10181294
18:00+23з235032 0.0 1018688
21:00+17зсз117677 0.0 101811